This is the latest recevied weather packets stored in our database for station/object AD0YN. If no packets are shown the sender has not sent any weather packets the latest 10 day(s).
| Time | Temp. | Humidity | Pressure | Rain* | Wind** | Luminosity | Snow |
|---|---|---|---|---|---|---|---|
| 1778167479 | 15.56° C | 50% | 1015.1 hPa | 0 mm | - | 652 W/m² | - |
| 1778167176 | 15.56° C | 50% | 1015 hPa | 0 mm | - | 636 W/m² | - |
| 1778166872 | 15.56° C | 51% | 1015 hPa | 0 mm | - | 625 W/m² | - |
| 1778166569 | 15.56° C | 53% | 1015 hPa | 0 mm | - | 613 W/m² | - |
| 1778166266 | 15° C | 54% | 1015 hPa | 0 mm | - | 593 W/m² | - |
| 1778165962 | 15.56° C | 52% | 1015.2 hPa | 0 mm | - | 589 W/m² | - |
| 1778165658 | 15.56° C | 53% | 1015.2 hPa | 0 mm | - | 576 W/m² | - |
| 1778165355 | 15° C | 52% | 1015.2 hPa | 0 mm | - | 562 W/m² | - |
| 1778165052 | 15° C | 52% | 1015.1 hPa | 0 mm | - | 551 W/m² | - |
| 1778164749 | 15° C | 53% | 1015 hPa | 0 mm | - | 538 W/m² | - |
| 1778164447 | 15° C | 54% | 1015.3 hPa | 0 mm | - | 524 W/m² | - |
| 1778164143 | 14.44° C | 56% | 1015.1 hPa | 0 mm | - | 509 W/m² | - |
| 1778163839 | 13.89° C | 56% | 1015.2 hPa | 0 mm | - | 492 W/m² | - |
| 1778163536 | 13.89° C | 56% | 1015.1 hPa | 0 mm | - | 475 W/m² | - |
| 1778163232 | 13.89° C | 56% | 1015.2 hPa | 0 mm | - | 458 W/m² | - |
| 1778162929 | 13.89° C | 58% | 1015.2 hPa | 0 mm | - | 440 W/m² | - |
| 1778162626 | 13.89° C | 57% | 1015.4 hPa | 0 mm | - | 421 W/m² | - |
| 1778162324 | 13.33° C | 58% | 1015.5 hPa | 0 mm | - | 402 W/m² | - |
| 1778162020 | 13.33° C | 57% | 1015.1 hPa | 0 mm | - | 384 W/m² | - |
| 1778161718 | 12.78° C | 59% | 1015.3 hPa | 0 mm | - | 366 W/m² | - |
| 1778161413 | 12.78° C | 59% | 1015.4 hPa | 0 mm | - | 346 W/m² | - |
| 1778161109 | 12.22° C | 60% | 1015.5 hPa | 0 mm | - | 330 W/m² | - |
| 1778160805 | 12.22° C | 61% | 1015.2 hPa | 0 mm | - | 311 W/m² | - |
| 1778160504 | 11.67° C | 62% | 1015.6 hPa | 0 mm | - | 293 W/m² | - |
| 1778160200 | 11.67° C | 62% | 1015.7 hPa | 0 mm | - | 275 W/m² | - |
* Rain latest hour (hover to see other rain measurements)
** Current wind speed in m/s (hover to see current wind gust speed)